| time (UTC) | temp C | wind direction | speed KPH | gust KPH | rain 1hr cm | rain 24hr cm | rain mn cm | humidity % | barometer mb |
| 20260508002209 | 13 | 180 | 0.0 | 0.0 | 0.00 | 2.87 | 0.00 | 61 | 1017.0 |
| 20260508001710 | 13 | 180 | 0.0 | 0.0 | 0.00 | 2.87 | 0.00 | 62 | 1017.1 |
| 20260508001211 | 13 | 180 | 0.0 | 0.0 | 0.00 | 2.87 | 0.00 | 62 | 1017.1 |
| 20260508000713 | 13 | 180 | 0.0 | 0.0 | 0.00 | 2.87 | 0.00 | 61 | 1017.1 |
| 20260508000214 | 13 | 180 | 0.0 | 0.0 | 0.00 | 2.87 | 0.00 | 60 | 1017.1 |
| 20260507235715 | 13 | 180 | 0.0 | 0.0 | 0.00 | 2.87 | 0.00 | 59 | 1017.1 |
| 20260507235216 | 13 | 180 | 0.0 | 0.0 | 0.00 | 2.87 | 0.00 | 59 | 1017.0 |
| 20260507234219 | 13 | 180 | 0.0 | 0.0 | 0.00 | 2.87 | 0.00 | 59 | 1017.0 |
| 20260507233720 | 13 | 180 | 0.0 | 0.0 | 0.00 | 2.87 | 0.00 | 58 | 1017.0 |
| 20260507233221 | 13 | 180 | 0.0 | 0.0 | 0.00 | 2.87 | 0.00 | 58 | 1017.0 |
| 20260507232723 | 14 | 180 | 0.0 | 0.0 | 0.00 | 2.87 | 0.00 | 58 | 1017.0 |
| 20260507232224 | 14 | 180 | 0.0 | 0.0 | 0.00 | 2.87 | 0.00 | 58 | 1017.1 |
| 20260507231725 | 14 | 180 | 0.0 | 0.0 | 0.00 | 2.87 | 0.00 | 58 | 1017.1 |
| 20260507231226 | 14 | 180 | 0.0 | 0.0 | 0.00 | 2.87 | 0.00 | 58 | 1017.1 |
| 20260507230727 | 14 | 180 | 0.0 | 0.0 | 0.00 | 2.87 | 0.00 | 57 | 1017.1 |
| 20260507230229 | 14 | 180 | 0.0 | 0.0 | 0.00 | 2.87 | 0.00 | 57 | 1017.1 |
| 20260507225730 | 14 | 180 | 0.0 | 0.0 | 0.00 | 2.87 | 0.00 | 57 | 1017.1 |
| 20260507225231 | 14 | 180 | 0.0 | 0.0 | 0.00 | 2.87 | 0.00 | 57 | 1017.1 |
| 20260507224732 | 14 | 180 | 0.0 | 0.0 | 0.00 | 2.87 | 0.00 | 57 | 1017.1 |
| 20260507223735 | 14 | 180 | 0.0 | 0.0 | 0.00 | 2.87 | 0.00 | 57 | 1017.2 |
| 20260507223236 | 14 | 180 | 0.0 | 0.0 | 0.00 | 2.87 | 0.00 | 57 | 1017.1 |
| 20260507222737 | 15 | 180 | 0.0 | 0.0 | 0.00 | 2.87 | 0.00 | 56 | 1017.1 |
| 20260507222238 | 15 | 180 | 0.0 | 0.0 | 0.00 | 2.87 | 0.00 | 56 | 1017.0 |
| 20260507221739 | 15 | 180 | 0.0 | 0.0 | 0.00 | 2.87 | 0.00 | 56 | 1017.0 |
| 20260507221241 | 15 | 180 | 0.0 | 0.0 | 0.00 | 2.87 | 0.00 | 56 | 1017.0 |
| 20260507220742 | 15 | 180 | 0.0 | 0.0 | 0.00 | 2.87 | 0.00 | 55 | 1017.0 |
| 20260507220243 | 15 | 180 | 0.0 | 0.0 | 0.00 | 2.87 | 0.00 | 54 | 1017.1 |
| 20260507215744 | 15 | 180 | 0.0 | 0.0 | 0.00 | 2.87 | 0.00 | 54 | 1017.1 |
| 20260507215245 | 15 | 180 | 0.0 | 0.0 | 0.00 | 2.87 | 0.00 | 54 | 1017.0 |
| 20260507214747 | 15 | 180 | 0.0 | 0.0 | 0.00 | 2.87 | 0.00 | 55 | 1017.0 |
| 20260507214248 | 15 | 180 | 0.0 | 0.0 | 0.00 | 2.87 | 0.00 | 55 | 1016.9 |
| 20260507213749 | 15 | 180 | 0.0 | 0.0 | 0.00 | 2.87 | 0.00 | 54 | 1016.9 |
| 20260507213250 | 15 | 180 | 0.0 | 1.6 | 0.00 | 2.87 | 0.00 | 54 | 1016.9 |
| 20260507212752 | 15 | 180 | 0.0 | 0.0 | 0.00 | 2.87 | 0.00 | 53 | 1016.9 |
| 20260507212253 | 15 | 180 | 0.0 | 0.0 | 0.00 | 2.87 | 0.00 | 53 | 1016.8 |
| 20260507211754 | 15 | 180 | 0.0 | 0.0 | 0.00 | 2.87 | 0.00 | 52 | 1016.8 |
| 20260507211255 | 15 | 180 | 0.0 | 0.0 | 0.00 | 2.87 | 0.00 | 52 | 1016.7 |
| 20260507210756 | 15 | 180 | 0.0 | 0.0 | 0.00 | 2.87 | 0.00 | 52 | 1016.6 |
| 20260507210257 | 15 | 180 | 0.0 | 0.0 | 0.00 | 2.87 | 0.00 | 52 | 1016.6 |
| 20260507205759 | 15 | 180 | 0.0 | 0.0 | 0.00 | 2.87 | 0.00 | 52 | 1016.5 |
| 20260507205300 | 15 | 180 | 0.0 | 0.0 | 0.00 | 2.87 | 0.00 | 52 | 1016.5 |
| 20260507204801 | 15 | 180 | 0.0 | 0.0 | 0.00 | 2.87 | 0.00 | 52 | 1016.4 |
| 20260507204302 | 15 | 180 | 0.0 | 0.0 | 0.00 | 2.87 | 0.00 | 52 | 1016.3 |
| 20260507203803 | 15 | 197 | 0.0 | 0.0 | 0.00 | 2.87 | 0.00 | 52 | 1016.3 |
| 20260507203305 | 15 | 225 | 0.0 | 0.0 | 0.00 | 2.87 | 0.00 | 52 | 1016.2 |
| 20260507202806 | 15 | 225 | 0.0 | 0.0 | 0.00 | 2.87 | 0.00 | 52 | 1016.1 |
| 20260507201808 | 15 | 225 | 0.0 | 0.0 | 0.00 | 2.87 | 0.00 | 52 | 1015.9 |
| 20260507201310 | 15 | 225 | 0.0 | 0.0 | 0.00 | 2.87 | 0.00 | 52 | 1015.9 |
| 20260507200811 | 15 | 184 | 0.0 | 1.6 | 0.00 | 3.28 | 0.00 | 52 | 1015.8 |
| 20260507200312 | 15 | 197 | 0.0 | 1.6 | 0.00 | 3.28 | 0.00 | 51 | 1015.8 |
| 20260507195813 | 15 | 182 | 1.6 | 1.6 | 0.00 | 3.28 | 0.00 | 51 | 1015.7 |
| 20260507195314 | 15 | 115 | 0.0 | 1.6 | 0.00 | 3.28 | 0.00 | 51 | 1015.7 |
| 20260507194816 | 15 | 86 | 0.0 | 0.0 | 0.00 | 3.28 | 0.00 | 50 | 1015.6 |
| 20260507194317 | 15 | 125 | 1.6 | 4.8 | 0.00 | 3.28 | 0.00 | 51 | 1015.6 |
| 20260507193818 | 15 | 144 | 1.6 | 3.2 | 0.00 | 3.28 | 0.00 | 50 | 1015.6 |
| 20260507193325 | 15 | 197 | 1.6 | 3.2 | 0.00 | 3.28 | 0.00 | 49 | 1015.7 |
| 20260507193319 | 15 | 197 | 1.6 | 3.2 | 0.00 | 3.28 | 0.00 | 49 | 1015.7 |
| 20260507192821 | 16 | 190 | 1.6 | 3.2 | 0.00 | 3.28 | 0.00 | 47 | 1015.6 |
| 20260507191823 | 16 | 180 | 0.0 | 0.0 | 0.00 | 3.28 | 0.00 | 45 | 1015.4 |
| 20260507191324 | 16 | 180 | 0.0 | 1.6 | 0.00 | 3.28 | 0.00 | 44 | 1015.2 |
| 20260507190825 | 16 | 180 | 0.0 | 1.6 | 0.00 | 3.28 | 0.00 | 44 | 1015.1 |
| 20260507190327 | 17 | 180 | 0.0 | 1.6 | 0.00 | 3.28 | 0.00 | 43 | 1015.0 |
| 20260507185828 | 17 | 180 | 0.0 | 1.6 | 0.00 | 3.28 | 0.00 | 42 | 1014.9 |
| 20260507185329 | 17 | 221 | 0.0 | 1.6 | 0.00 | 3.28 | 0.00 | 42 | 1014.8 |
| 20260507184830 | 17 | 225 | 0.0 | 1.6 | 0.00 | 3.28 | 0.00 | 41 | 1014.8 |
| 20260507184331 | 17 | 225 | 0.0 | 1.6 | 0.00 | 3.33 | 0.00 | 40 | 1014.6 |
| 20260507183833 | 18 | 218 | 0.0 | 1.6 | 0.00 | 3.33 | 0.00 | 39 | 1014.7 |
| 20260507183334 | 18 | 180 | 0.0 | 1.6 | 0.00 | 3.33 | 0.00 | 39 | 1014.7 |
| 20260507182835 | 18 | 180 | 0.0 | 1.6 | 0.00 | 3.33 | 0.00 | 38 | 1014.5 |
| 20260507182336 | 18 | 180 | 0.0 | 1.6 | 0.00 | 3.33 | 0.00 | 37 | 1014.4 |
| 20260507181339 | 20 | 228 | 0.0 | 1.6 | 0.00 | 3.33 | 0.00 | 34 | 1014.4 |
| 20260507180840 | 21 | 175 | 1.6 | 1.6 | 0.00 | 3.40 | 0.00 | 33 | 1014.3 |
| 20260507175842 | 22 | 202 | 1.6 | 3.2 | 0.00 | 5.66 | 0.00 | 30 | 1014.2 |
| 20260507174346 | 23 | 162 | 1.6 | 1.6 | 0.00 | 5.66 | 0.00 | 28 | 1014.1 |
| 20260507173847 | 23 | 168 | 1.6 | 1.6 | 0.00 | 5.66 | 0.00 | 28 | 1014.1 |
| 20260507173349 | 23 | 115 | 1.6 | 4.8 | 0.00 | 5.66 | 0.00 | 28 | 1014.1 |
| 20260507172351 | 23 | 89 | 1.6 | 3.2 | 0.00 | 5.66 | 0.00 | 29 | 1014.0 |
| 20260507171852 | 22 | 131 | 1.6 | 3.2 | 0.00 | 5.66 | 0.00 | 31 | 1014.1 |
| 20260507170855 | 21 | 116 | 1.6 | 3.2 | 0.00 | 5.66 | 0.00 | 31 | 1013.9 |
| 20260507170356 | 22 | 65 | 1.6 | 3.2 | 0.00 | 5.66 | 0.00 | 30 | 1013.8 |
| 20260507165857 | 23 | 157 | 1.6 | 4.8 | 0.00 | 5.66 | 0.00 | 29 | 1013.9 |
| 20260507165358 | 24 | 97 | 3.2 | 3.2 | 0.00 | 5.66 | 0.00 | 28 | 1013.9 |
| 20260507164900 | 25 | 196 | 1.6 | 4.8 | 0.00 | 5.66 | 0.00 | 27 | 1013.8 |
| 20260507164401 | 25 | 163 | 1.6 | 3.2 | 0.00 | 5.66 | 0.00 | 27 | 1013.8 |
| 20260507163907 | 25 | 193 | 1.6 | 4.8 | 0.00 | 5.66 | 0.00 | 28 | 1013.7 |
| 20260507163902 | 25 | 193 | 1.6 | 4.8 | 0.00 | 5.66 | 0.00 | 28 | 1013.7 |
| 20260507163408 | 26 | 264 | 1.6 | 3.2 | 0.00 | 5.66 | 0.00 | 27 | 1013.7 |
| 20260507163403 | 26 | 264 | 1.6 | 3.2 | 0.00 | 5.66 | 0.00 | 27 | 1013.7 |
| 20260507162904 | 26 | 107 | 1.6 | 3.2 | 0.00 | 5.66 | 0.00 | 26 | 1013.8 |
| 20260507162406 | 27 | 74 | 1.6 | 4.8 | 0.00 | 5.66 | 0.00 | 27 | 1013.7 |
| 20260507161408 | 27 | 180 | 1.6 | 4.8 | 0.00 | 5.66 | 0.00 | 27 | 1013.6 |
| 20260507160909 | 26 | 134 | 1.6 | 3.2 | 0.00 | 5.66 | 0.00 | 27 | 1013.5 |
| 20260507160416 | 27 | 241 | 1.6 | 4.8 | 0.00 | 5.66 | 0.00 | 27 | 1013.5 |
| 20260507160410 | 27 | 241 | 1.6 | 4.8 | 0.00 | 5.66 | 0.00 | 27 | 1013.5 |
| 20260507155912 | 26 | 72 | 3.2 | 4.8 | 0.00 | 5.66 | 0.00 | 28 | 1013.6 |
| 20260507155413 | 25 | 146 | 3.2 | 4.8 | 0.00 | 5.66 | 0.00 | 28 | 1013.8 |
| 20260507154914 | 26 | 131 | 3.2 | 4.8 | 0.00 | 5.66 | 0.00 | 28 | 1013.6 |
| 20260507154415 | 26 | 106 | 1.6 | 3.2 | 0.00 | 5.66 | 0.00 | 26 | 1013.4 |
| 20260507153917 | 27 | 123 | 1.6 | 3.2 | 0.00 | 5.66 | 0.00 | 24 | 1013.3 |
| 20260507153418 | 29 | 203 | 1.6 | 4.8 | 0.00 | 5.66 | 0.00 | 23 | 1013.1 |
| 20260507152919 | 30 | 121 | 1.6 | 3.2 | 0.00 | 5.66 | 0.00 | 22 | 1013.3 |
| 20260507152420 | 30 | 101 | 1.6 | 4.8 | 0.00 | 5.66 | 0.00 | 22 | 1013.2 |
| 20260507151927 | 30 | 93 | 1.6 | 3.2 | 0.00 | 5.66 | 0.00 | 22 | 1013.4 |
| 20260507151921 | 30 | 93 | 1.6 | 3.2 | 0.00 | 5.66 | 0.00 | 22 | 1013.4 |
| 20260507151423 | 30 | 158 | 1.6 | 4.8 | 0.00 | 5.66 | 0.00 | 23 | 1013.1 |
| 20260507150924 | 28 | 228 | 3.2 | 6.4 | 0.00 | 5.66 | 0.00 | 23 | 1013.1 |
| 20260507150425 | 28 | 57 | 1.6 | 4.8 | 0.00 | 5.66 | 0.00 | 25 | 1013.0 |
| 20260507145926 | 27 | 64 | 1.6 | 4.8 | 0.00 | 5.66 | 0.00 | 27 | 1013.1 |
| 20260507145427 | 25 | 195 | 3.2 | 4.8 | 0.00 | 5.66 | 0.00 | 29 | 1013.2 |
| 20260507144928 | 23 | 52 | 1.6 | 4.8 | 0.00 | 5.66 | 0.00 | 31 | 1013.2 |
| 20260507144430 | 23 | 124 | 1.6 | 4.8 | 0.00 | 5.66 | 0.00 | 31 | 1013.2 |
| 20260507143931 | 23 | 117 | 3.2 | 3.2 | 0.00 | 5.66 | 0.00 | 31 | 1013.3 |
| 20260507143437 | 24 | 179 | 3.2 | 4.8 | 0.00 | 5.66 | 0.00 | 29 | 1013.3 |
| 20260507143432 | 24 | 179 | 3.2 | 4.8 | 0.00 | 5.66 | 0.00 | 29 | 1013.3 |
| 20260507142934 | 25 | 153 | 3.2 | 6.4 | 0.00 | 5.66 | 0.00 | 27 | 1013.2 |
| 20260507142436 | 26 | 87 | 3.2 | 8.0 | 1.80 | 5.66 | 0.00 | 26 | 1013.1 |
| 20260507142431 | 26 | 87 | 3.2 | 8.0 | 1.80 | 5.66 | 0.00 | 26 | 1013.1 |
| 20260507141934 | 27 | 84 | 4.8 | 11.3 | 1.80 | 5.66 | 0.00 | 24 | 1013.3 |
| 20260507141929 | 27 | 84 | 4.8 | 11.3 | 1.80 | 5.66 | 0.00 | 24 | 1013.3 |
| 20260507141427 | 27 | 121 | 3.2 | 6.4 | 1.80 | 5.66 | 0.00 | 24 | 1013.4 |
| 20260507140925 | 27 | 150 | 3.2 | 4.8 | 12.34 | 5.66 | 0.00 | 25 | 1013.2 |
| 20260507140423 | 26 | 63 | 17.7 | 77.2 | 2.87 | 5.66 | 0.00 | 26 | 1013.2 |
| 20260507135919 | 26 | 91 | 3.2 | 4.8 | 2.87 | 5.66 | 0.00 | 25 | 1013.3 |
| 20260507135417 | 28 | 66 | 1.6 | 3.2 | 2.87 | 5.66 | 0.00 | 24 | 1013.1 |
| 20260507134915 | 30 | 96 | 1.6 | 4.8 | 2.87 | 5.66 | 0.00 | 22 | 1013.2 |
| 20260507134413 | 32 | 47 | 1.6 | 3.2 | 2.87 | 5.66 | 0.00 | 21 | 1013.2 |
| 20260507133911 | 31 | 47 | 1.6 | 4.8 | 2.87 | 5.66 | 0.00 | 22 | 1013.3 |
| 20260507133410 | 30 | 59 | 3.2 | 8.0 | 2.87 | 5.66 | 0.00 | 22 | 1013.3 |
| 20260507132907 | 29 | 54 | 6.4 | 56.3 | 2.87 | 5.66 | 0.00 | 23 | 1013.3 |
| 20260507132405 | 28 | 59 | 1.6 | 3.2 | 2.69 | 5.49 | 0.00 | 24 | 1013.3 |
| 20260507131902 | 30 | 78 | 1.6 | 3.2 | 2.69 | 5.49 | 0.00 | 22 | 1013.3 |
| 20260507131400 | 30 | 44 | 22.5 | 86.9 | 2.69 | 5.49 | 0.00 | 23 | 1013.2 |
| 20260507130854 | 31 | 106 | 16.1 | 157.7 | 16.51 | 4.42 | 0.00 | 22 | 1013.5 |
| 20260507130336 | 30 | 198 | 3.2 | 6.4 | 0.00 | 2.77 | 0.00 | 22 | 1013.5 |
| 20260507125837 | 32 | 41 | 1.6 | 4.8 | 0.00 | 2.77 | 0.00 | 21 | 1013.5 |
| 20260507124839 | 32 | 90 | 3.2 | 4.8 | 0.00 | 2.77 | 0.00 | 21 | 1013.5 |
| 20260507124346 | 31 | 193 | 1.6 | 4.8 | 0.00 | 2.77 | 0.00 | 23 | 1013.3 |
| 20260507124340 | 31 | 193 | 1.6 | 4.8 | 0.00 | 2.77 | 0.00 | 23 | 1013.3 |
| 20260507123842 | 30 | 301 | 3.2 | 4.8 | 0.00 | 2.77 | 0.00 | 24 | 1013.5 |
| 20260507123343 | 28 | 59 | 3.2 | 4.8 | 0.00 | 2.77 | 0.00 | 25 | 1013.4 |
| 20260507122849 | 28 | 27 | 1.6 | 4.8 | 0.00 | 2.77 | 0.00 | 26 | 1013.4 |
| 20260507122844 | 28 | 27 | 1.6 | 4.8 | 0.00 | 2.77 | 0.00 | 26 | 1013.4 |
| 20260507122331 | 26 | 0 | 1.6 | 3.2 | 0.00 | 2.77 | 0.00 | 30 | 1013.3 |
| 20260507122325 | 26 | 0 | 1.6 | 3.2 | 0.00 | 2.77 | 0.00 | 30 | 1013.3 |
| 20260507121827 | 23 | 171 | 1.6 | 3.2 | 0.00 | 2.77 | 0.00 | 34 | 1013.3 |
| 20260507121328 | 22 | 171 | 1.6 | 4.8 | 0.00 | 2.77 | 0.00 | 36 | 1013.3 |
| 20260507120829 | 22 | 135 | 0.0 | 1.6 | 0.00 | 2.77 | 0.00 | 37 | 1013.3 |
| 20260507120330 | 21 | 138 | 1.6 | 3.2 | 0.00 | 2.77 | 0.00 | 36 | 1013.4 |
| 20260507115831 | 21 | 81 | 3.2 | 4.8 | 0.00 | 2.77 | 0.00 | 36 | 1013.6 |
| 20260507115333 | 21 | 101 | 1.6 | 4.8 | 0.00 | 2.77 | 0.00 | 37 | 1013.4 |
| 20260507114834 | 21 | 75 | 1.6 | 4.8 | 0.00 | 2.77 | 0.00 | 37 | 1013.5 |
| 20260507114335 | 21 | 192 | 1.6 | 4.8 | 0.00 | 2.77 | 0.00 | 39 | 1013.5 |
| 20260507113841 | 20 | 72 | 3.2 | 6.4 | 0.00 | 2.77 | 0.00 | 39 | 1013.6 |
| 20260507113836 | 20 | 72 | 3.2 | 6.4 | 0.00 | 2.77 | 0.00 | 39 | 1013.6 |
| 20260507113337 | 20 | 37 | 1.6 | 3.2 | 0.00 | 2.77 | 0.00 | 39 | 1013.5 |
| 20260507112839 | 20 | 83 | 1.6 | 4.8 | 0.00 | 2.77 | 0.00 | 38 | 1013.6 |
| 20260507112340 | 20 | 59 | 3.2 | 4.8 | 0.00 | 2.77 | 0.00 | 38 | 1013.6 |
| 20260507111841 | 20 | 84 | 1.6 | 3.2 | 0.00 | 2.77 | 0.00 | 39 | 1013.3 |
| 20260507111342 | 20 | 33 | 1.6 | 4.8 | 0.00 | 2.77 | 0.00 | 40 | 1013.5 |
| 20260507110844 | 20 | 64 | 1.6 | 3.2 | 0.00 | 2.77 | 0.00 | 40 | 1013.4 |
| 20260507110345 | 19 | 77 | 1.6 | 3.2 | 0.00 | 2.77 | 0.00 | 40 | 1013.4 |
| 20260507105846 | 19 | 63 | 1.6 | 4.8 | 0.00 | 2.77 | 0.00 | 41 | 1013.3 |
| 20260507105347 | 19 | 36 | 1.6 | 3.2 | 0.00 | 2.77 | 0.00 | 42 | 1013.4 |
| 20260507104848 | 19 | 224 | 1.6 | 3.2 | 0.00 | 2.77 | 0.00 | 43 | 1013.5 |
| 20260507103851 | 18 | 87 | 1.6 | 3.2 | 0.00 | 2.77 | 0.00 | 43 | 1013.5 |
| 20260507103352 | 18 | 107 | 1.6 | 3.2 | 0.00 | 2.77 | 0.00 | 43 | 1013.4 |
| 20260507102854 | 18 | 72 | 1.6 | 3.2 | 0.00 | 2.77 | 0.00 | 43 | 1013.4 |
| 20260507102354 | 19 | 239 | 1.6 | 3.2 | 0.00 | 2.77 | 0.00 | 44 | 1013.5 |
| 20260507101856 | 19 | 184 | 1.6 | 3.2 | 0.00 | 2.77 | 0.00 | 43 | 1013.4 |
| 20260507101357 | 19 | 106 | 1.6 | 3.2 | 0.00 | 2.77 | 0.00 | 43 | 1013.3 |
| 20260507100858 | 19 | 90 | 0.0 | 1.6 | 0.00 | 2.77 | 0.00 | 46 | 1013.4 |
| 20260507100359 | 18 | 90 | 0.0 | 1.6 | 0.00 | 2.77 | 0.00 | 45 | 1013.4 |
| 20260507095900 | 18 | 72 | 1.6 | 4.8 | 0.00 | 2.77 | 0.00 | 46 | 1013.5 |
| 20260507095402 | 18 | 229 | 1.6 | 3.2 | 0.00 | 2.77 | 0.00 | 47 | 1013.5 |
| 20260507094903 | 18 | 122 | 1.6 | 3.2 | 0.00 | 2.77 | 0.00 | 47 | 1013.4 |
| 20260507094405 | 18 | 45 | 1.6 | 1.6 | 0.00 | 2.77 | 0.00 | 46 | 1013.3 |
| 20260507093905 | 18 | 45 | 1.6 | 3.2 | 0.00 | 2.77 | 0.00 | 46 | 1013.3 |
| 20260507093407 | 18 | 45 | 0.0 | 1.6 | 0.00 | 2.77 | 0.00 | 46 | 1013.2 |
| 20260507092908 | 18 | 45 | 1.6 | 3.2 | 0.00 | 2.77 | 0.00 | 46 | 1013.1 |
| 20260507092409 | 17 | 45 | 1.6 | 3.2 | 0.00 | 2.77 | 0.00 | 48 | 1013.0 |
| 20260507091910 | 17 | 45 | 1.6 | 4.8 | 0.00 | 2.77 | 0.00 | 49 | 1013.1 |
| 20260507090840 | 17 | 55 | 1.6 | 4.8 | 0.00 | 2.77 | 0.00 | 50 | 1013.2 |
| 20260507090835 | 17 | 55 | 1.6 | 4.8 | 0.00 | 2.77 | 0.00 | 50 | 1013.2 |
| 20260507090336 | 17 | 45 | 1.6 | 3.2 | 0.00 | 2.77 | 0.00 | 50 | 1013.2 |
| 20260507085837 | 17 | 69 | 1.6 | 1.6 | 0.00 | 2.77 | 0.00 | 51 | 1013.1 |
| 20260507085344 | -17 | 224 | 1.6 | 4.8 | 0.00 | 0.00 | 0.00 | ||
| 20260507085338 | 17 | 224 | 1.6 | 4.8 | 0.00 | 2.77 | 0.00 | 51 | 1013.0 |
| 20260507084839 | 17 | 97 | 1.6 | 4.8 | 0.00 | 2.77 | 0.00 | 51 | 1013.1 |
| 20260507084340 | 17 | 37 | 1.6 | 3.2 | 0.00 | 2.77 | 0.00 | 51 | 1013.0 |
| 20260507083842 | 17 | 94 | 1.6 | 3.2 | 0.00 | 2.77 | 0.00 | 51 | 1012.9 |
| 20260507083343 | 17 | 72 | 3.2 | 4.8 | 0.00 | 2.77 | 0.00 | 51 | 1012.8 |
| 20260507082844 | 17 | 67 | 3.2 | 4.8 | 0.00 | 2.77 | 0.00 | 51 | 1012.9 |
| 20260507082345 | 17 | 110 | 1.6 | 3.2 | 0.00 | 2.77 | 0.00 | 51 | 1012.8 |
| 20260507081846 | 17 | 88 | 3.2 | 4.8 | 0.00 | 2.77 | 0.00 | 51 | 1012.8 |
| 20260507080849 | 17 | 110 | 1.6 | 3.2 | 0.00 | 2.77 | 0.00 | 52 | 1012.8 |
| 20260507080350 | 16 | 59 | 3.2 | 8.0 | 0.00 | 2.77 | 0.00 | 52 | 1012.8 |
| 20260507075851 | 16 | 74 | 3.2 | 4.8 | 0.00 | 2.77 | 0.00 | 52 | 1012.9 |
| 20260507075352 | 16 | 64 | 3.2 | 6.4 | 0.00 | 2.77 | 0.00 | 53 | 1013.0 |
| 20260507074854 | 16 | 83 | 1.6 | 3.2 | 0.00 | 2.77 | 0.00 | 53 | 1012.9 |
| 20260507074355 | 16 | 61 | 3.2 | 6.4 | 0.00 | 2.77 | 0.00 | 54 | 1012.7 |
| 20260507073901 | 16 | 58 | 1.6 | 3.2 | 0.00 | 2.77 | 0.00 | 54 | 1012.8 |
| 20260507073856 | 16 | 58 | 1.6 | 3.2 | 0.00 | 2.77 | 0.00 | 54 | 1012.8 |
| 20260507073357 | 16 | 52 | 1.6 | 4.8 | 0.00 | 2.77 | 0.00 | 55 | 1012.8 |
| 20260507072859 | 16 | 92 | 1.6 | 3.2 | 0.00 | 2.77 | 0.00 | 56 | 1012.8 |
| 20260507072405 | 16 | 49 | 1.6 | 3.2 | 0.00 | 2.77 | 0.00 | 55 | 1012.6 |
| 20260507072400 | 16 | 49 | 1.6 | 3.2 | 0.00 | 2.77 | 0.00 | 55 | 1012.6 |
| 20260507071901 | 16 | 45 | 1.6 | 3.2 | 0.00 | 2.77 | 0.00 | 56 | 1012.6 |
| 20260507071402 | 16 | 92 | 1.6 | 4.8 | 0.00 | 2.77 | 0.00 | 55 | 1012.7 |
| 20260507070903 | 16 | 104 | 1.6 | 4.8 | 0.00 | 2.77 | 0.00 | 56 | 1012.6 |
| 20260507070405 | 16 | 182 | 1.6 | 4.8 | 0.00 | 2.77 | 0.00 | 56 | 1012.5 |
| 20260507065906 | 16 | 139 | 1.6 | 3.2 | 0.00 | 2.77 | 0.00 | 55 | 1012.5 |
| 20260507065407 | 16 | 121 | 0.0 | 1.6 | 0.00 | 2.77 | 0.00 | 55 | 1012.4 |
| 20260507064908 | 16 | 102 | 1.6 | 3.2 | 0.00 | 2.77 | 0.00 | 56 | 1012.4 |
| 20260507064410 | 16 | 92 | 1.6 | 3.2 | 0.00 | 2.77 | 0.00 | 57 | 1012.4 |
| 20260507063911 | 16 | 72 | 1.6 | 3.2 | 0.00 | 2.77 | 0.00 | 57 | 1012.2 |
| 20260507063412 | 16 | 90 | 0.0 | 0.0 | 0.00 | 2.77 | 0.00 | 58 | 1012.1 |
| 20260507062914 | 16 | 81 | 0.0 | 1.6 | 0.00 | 2.77 | 0.00 | 59 | 1012.1 |
| 20260507062414 | 16 | 90 | 0.0 | 0.0 | 0.00 | 2.77 | 0.00 | 61 | 1012.1 |
| 20260507061916 | 15 | 90 | 0.0 | 0.0 | 0.00 | 2.77 | 0.00 | 61 | 1012.1 |
| 20260507061417 | 15 | 90 | 0.0 | 1.6 | 0.00 | 2.77 | 0.00 | 61 | 1012.0 |
| 20260507060918 | 15 | 65 | 1.6 | 4.8 | 0.00 | 2.77 | 0.00 | 62 | 1012.0 |
| 20260507060425 | 15 | 45 | 0.0 | 1.6 | 0.00 | 2.77 | 0.00 | 63 | 1012.0 |
| 20260507060420 | 15 | 45 | 0.0 | 1.6 | 0.00 | 2.77 | 0.00 | 63 | 1012.0 |
| 20260507055921 | 15 | 45 | 1.6 | 1.6 | 0.00 | 2.77 | 0.00 | 63 | 1011.9 |
| 20260507055422 | 15 | 86 | 1.6 | 4.8 | 0.00 | 2.77 | 0.00 | 64 | 1012.0 |
| 20260507054928 | 15 | 90 | 1.6 | 1.6 | 0.00 | 2.77 | 0.00 | 64 | 1011.9 |
| 20260507054923 | 15 | 90 | 1.6 | 1.6 | 0.00 | 2.77 | 0.00 | 64 | 1011.9 |
| 20260507054424 | 15 | 76 | 0.0 | 1.6 | 0.00 | 2.77 | 0.00 | 65 | 1011.8 |
| 20260507053925 | 15 | 80 | 0.0 | 1.6 | 0.00 | 2.77 | 0.00 | 65 | 1011.7 |
| 20260507053432 | 15 | 90 | 0.0 | 1.6 | 0.00 | 2.77 | 0.00 | 65 | 1011.7 |
| 20260507053427 | 15 | 90 | 0.0 | 1.6 | 0.00 | 2.77 | 0.00 | 65 | 1011.7 |
| 20260507052933 | 15 | 90 | 1.6 | 1.6 | 0.00 | 2.77 | 0.00 | 65 | 1011.6 |
| 20260507052928 | 15 | 90 | 1.6 | 1.6 | 0.00 | 2.77 | 0.00 | 65 | 1011.6 |
| 20260507052434 | 15 | 98 | 0.0 | 0.0 | 0.00 | 2.77 | 0.00 | 65 | 1011.5 |
| 20260507052429 | 15 | 98 | 0.0 | 0.0 | 0.00 | 2.77 | 0.00 | 65 | 1011.5 |
| 20260507051930 | 15 | 225 | 0.0 | 0.0 | 0.00 | 2.77 | 0.00 | 66 | 1011.5 |
| 20260507051432 | 15 | 225 | 0.0 | 0.0 | 0.00 | 2.77 | 0.00 | 66 | 1011.4 |
| 20260507050934 | 15 | 225 | 0.0 | 0.0 | 0.00 | 2.77 | 0.00 | 67 | 1011.3 |
| 20260507050439 | 15 | 225 | 0.0 | 0.0 | 0.00 | 2.77 | 0.00 | 67 | 1011.2 |
| 20260507050434 | 15 | 225 | 0.0 | 0.0 | 0.00 | 2.77 | 0.00 | 67 | 1011.2 |
| 20260507045940 | 14 | 225 | 0.0 | 0.0 | 0.00 | 2.77 | 0.00 | 67 | 1011.2 |
| 20260507045935 | 14 | 225 | 0.0 | 0.0 | 0.00 | 2.77 | 0.00 | 67 | 1011.2 |
| 20260507045443 | 14 | 225 | 0.0 | 0.0 | 0.00 | 2.77 | 0.00 | 67 | 1011.1 |
| 20260507045437 | 14 | 225 | 0.0 | 0.0 | 0.00 | 2.77 | 0.00 | 67 | 1011.1 |
| 20260507044944 | 14 | 225 | 0.0 | 0.0 | 0.00 | 0.00 | 0.00 | 67 | 1011.0 |
| 20260507044938 | 14 | 225 | 0.0 | 0.0 | 0.00 | 2.77 | 0.00 | 67 | 1011.0 |
| 20260507044439 | 14 | 225 | 0.0 | 0.0 | 0.00 | 2.77 | 0.00 | 68 | 1011.0 |
| 20260507043945 | 14 | 225 | 0.0 | 0.0 | 0.00 | 2.77 | 0.00 | 68 | 1011.0 |
| 20260507043940 | 14 | 225 | 0.0 | 0.0 | 0.00 | 2.77 | 0.00 | 68 | 1011.0 |
| 20260507043442 | 14 | 225 | 0.0 | 0.0 | 0.00 | 2.77 | 0.00 | 68 | 1011.0 |
| 20260507042943 | 14 | 225 | 0.0 | 0.0 | 0.00 | 2.77 | 0.00 | 68 | 1010.9 |
| 20260507042444 | 14 | 225 | 0.0 | 0.0 | 0.00 | 2.77 | 0.00 | 68 | 1010.8 |
| 20260507041945 | 14 | 225 | 0.0 | 0.0 | 0.00 | 2.77 | 0.00 | 68 | 1010.6 |
| 20260507041447 | 13 | 225 | 0.0 | 0.0 | 0.00 | 2.77 | 0.00 | 68 | 1010.6 |
| 20260507040953 | 13 | 225 | 0.0 | 0.0 | 0.00 | 2.77 | 0.00 | 69 | 1010.5 |
| 20260507040948 | 13 | 225 | 0.0 | 0.0 | 0.00 | 2.77 | 0.00 | 69 | 1010.5 |
| 20260507040454 | 13 | 225 | 0.0 | 0.0 | 0.00 | 2.77 | 0.00 | 69 | 1010.4 |
| 20260507040449 | 13 | 225 | 0.0 | 0.0 | 0.00 | 2.77 | 0.00 | 69 | 1010.4 |
| 20260507035955 | 13 | 225 | 0.0 | 0.0 | 0.00 | 2.77 | 0.00 | 69 | 1010.3 |
| 20260507035950 | 13 | 225 | 0.0 | 0.0 | 0.00 | 2.77 | 0.00 | 69 | 1010.3 |
| 20260507035451 | 13 | 225 | 0.0 | 0.0 | 0.00 | 2.77 | 0.00 | 69 | 1010.3 |
| 20260507034953 | 13 | 225 | 0.0 | 0.0 | 0.00 | 2.77 | 0.00 | 69 | 1010.3 |
| 20260507034454 | 13 | 225 | 0.0 | 0.0 | 0.00 | 2.77 | 0.00 | 69 | 1010.2 |
| 20260507033955 | 13 | 222 | 1.6 | 1.6 | 0.00 | 2.77 | 0.00 | 69 | 1010.1 |
| 20260507033501 | 13 | 90 | 0.0 | 1.6 | 0.00 | 2.77 | 0.00 | 69 | 1010.0 |
| 20260507033456 | 13 | 90 | 0.0 | 1.6 | 0.00 | 2.77 | 0.00 | 69 | 1010.0 |
| 20260507032957 | 13 | 90 | 0.0 | 1.6 | 0.00 | 2.77 | 0.00 | 68 | 1010.0 |
| 20260507032459 | 13 | 90 | 0.0 | 0.0 | 0.00 | 2.77 | 0.00 | 67 | 1010.0 |
| 20260507032000 | 13 | 90 | 0.0 | 1.6 | 0.00 | 2.77 | 0.00 | 67 | 1010.0 |
| 20260507031501 | 13 | 90 | 0.0 | 1.6 | 0.00 | 2.77 | 0.00 | 66 | 1010.0 |
| 20260507031008 | 14 | 90 | 0.0 | 0.0 | 0.00 | 2.77 | 0.00 | 66 | 1010.0 |
| 20260507031002 | 14 | 90 | 0.0 | 0.0 | 0.00 | 2.77 | 0.00 | 66 | 1010.0 |
| 20260507030509 | 14 | 90 | 0.0 | 1.6 | 0.00 | 2.77 | 0.00 | 66 | 1009.9 |
| 20260507030504 | 14 | 90 | 0.0 | 1.6 | 0.00 | 2.77 | 0.00 | 66 | 1009.9 |
| 20260507030005 | 14 | 90 | 0.0 | 0.0 | 0.00 | 2.77 | 0.00 | 66 | 1009.7 |
| 20260507025506 | 14 | 90 | 0.0 | 1.6 | 0.00 | 2.77 | 0.00 | 66 | 1009.8 |
| 20260507025007 | 14 | 175 | 0.0 | 1.6 | 0.00 | 2.77 | 0.00 | 65 | 1009.6 |
| 20260507024514 | 14 | 180 | 0.0 | 0.0 | 0.00 | 0.00 | 0.00 | 27 | |
| 20260507024508 | 14 | 180 | 0.0 | 0.0 | 0.00 | 2.77 | 0.00 | 63 | 1009.4 |
| 20260507024015 | 14 | 180 | 0.0 | 0.0 | 0.00 | 2.77 | 0.00 | 63 | 1009.3 |
| 20260507024010 | 14 | 180 | 0.0 | 0.0 | 0.00 | 2.77 | 0.00 | 63 | 1009.3 |
| 20260507023516 | 14 | 180 | 0.0 | 0.0 | 0.00 | 2.77 | 0.00 | 63 | 1009.3 |
| 20260507023511 | 14 | 180 | 0.0 | 0.0 | 0.00 | 2.77 | 0.00 | 63 | 1009.3 |
| 20260507023012 | 14 | 180 | 0.0 | 0.0 | 0.00 | 2.77 | 0.00 | 63 | 1009.2 |
| 20260507022514 | 14 | 180 | 0.0 | 0.0 | 0.00 | 2.77 | 0.00 | 63 | 1009.1 |
| 20260507022014 | 15 | 180 | 0.0 | 0.0 | 0.00 | 2.77 | 0.00 | 63 | 1009.1 |
| 20260507021521 | 15 | 180 | 0.0 | 0.0 | 0.00 | 2.77 | 0.00 | 63 | 1009.1 |
| 20260507021516 | 15 | 180 | 0.0 | 0.0 | 0.00 | 2.77 | 0.00 | 63 | 1009.1 |
| 20260507021017 | 15 | 180 | 0.0 | 0.0 | 0.00 | 2.77 | 0.00 | 63 | 1009.2 |
| 20260507020518 | 15 | 180 | 0.0 | 1.6 | 0.00 | 2.77 | 0.00 | 63 | 1009.2 |
| 20260507020019 | 15 | 180 | 0.0 | 0.0 | 0.00 | 2.77 | 0.00 | 63 | 1009.1 |
| 20260507015521 | 15 | 180 | 0.0 | 0.0 | 0.00 | 2.77 | 0.00 | 64 | 1009.1 |
| 20260507015022 | 15 | 181 | 1.6 | 1.6 | 0.00 | 2.77 | 0.00 | 64 | 1009.2 |
| 20260507014523 | 15 | 90 | 1.6 | 1.6 | 0.00 | 2.77 | 0.00 | 66 | 1009.3 |
| 20260507014024 | 15 | 121 | 0.0 | 1.6 | 0.00 | 2.77 | 0.00 | 66 | 1009.2 |
| 20260507013530 | 15 | 149 | 0.0 | 1.6 | 0.00 | 2.77 | 0.00 | 66 | 1009.1 |
| 20260507013525 | 15 | 149 | 0.0 | 1.6 | 0.00 | 2.77 | 0.00 | 66 | 1009.1 |
| 20260507013031 | 15 | 180 | 0.0 | 0.0 | 0.00 | 2.77 | 0.00 | 65 | 1009.0 |
| 20260507013026 | 15 | 180 | 0.0 | 0.0 | 0.00 | 2.77 | 0.00 | 65 | 1009.0 |
| 20260507012528 | 15 | 180 | 0.0 | 0.0 | 0.00 | 2.77 | 0.00 | 65 | 1008.9 |
| 20260507012034 | 15 | 180 | 0.0 | 1.6 | 0.00 | 2.77 | 0.00 | 65 | 1008.8 |
| 20260507012029 | 15 | 180 | 0.0 | 1.6 | 0.00 | 2.77 | 0.00 | 65 | 1008.8 |
| 20260507011530 | 15 | 180 | 0.0 | 1.6 | 0.00 | 2.77 | 0.00 | 66 | 1008.8 |
| 20260507011031 | 15 | 180 | 0.0 | 3.2 | 0.00 | 2.77 | 0.00 | 66 | 1008.9 |
| 20260507010533 | 15 | 180 | 0.0 | 1.6 | 0.00 | 2.77 | 0.00 | 65 | 1008.9 |
| 20260507010039 | 15 | 180 | 0.0 | 0.0 | 0.00 | 2.77 | 0.00 | 65 | 1008.9 |
| 20260507010034 | 15 | 180 | 0.0 | 0.0 | 0.00 | 2.77 | 0.00 | 65 | 1008.9 |
| 20260507005535 | 15 | 180 | 0.0 | 0.0 | 0.00 | 2.77 | 0.00 | 65 | 1008.7 |
| 20260507005036 | 15 | 180 | 0.0 | 1.6 | 0.00 | 2.77 | 0.00 | 66 | 1008.6 |
| 20260507004538 | 15 | 180 | 0.0 | 0.0 | 0.00 | 2.77 | 0.00 | 66 | 1008.6 |
| 20260507004044 | 15 | 180 | 0.0 | 0.0 | 0.00 | 2.77 | 0.00 | 66 | 1008.5 |
| 20260507004039 | 15 | 180 | 0.0 | 0.0 | 0.00 | 2.77 | 0.00 | 66 | 1008.5 |
| 20260507003540 | 15 | 180 | 0.0 | 0.0 | 0.00 | 2.77 | 0.00 | 66 | 1008.3 |
| 20260507003041 | 15 | 180 | 0.0 | 0.0 | 0.00 | 2.77 | 0.00 | 66 | 1008.2 |
| 20260507002542 | 15 | 180 | 0.0 | 0.0 | 0.00 | 2.77 | 0.00 | 66 | 1008.1 |